Change the Weather History Date:

Tuesday, June 4, 2013

  Actual Average Record
Temperature  
Mean Temperature 70 °F -  
Max Temperature 88 °F 75 °F 90 °F (2006)
Min Temperature 54 °F 45 °F 38 °F (1961)
Cooling Degree Days 6    
Growing Degree Days 20 (Base 50)    
Moisture  
Dew Point 13 °F    
Average Humidity 12    
Maximum Humidity 23    
Minimum Humidity 4    
Precipitation  
Precipitation 0.00 in - - ()
Sea Level Pressure  
Sea Level Pressure 29.73 in    
Wind  
Wind Speed 8 mph (SW)    
Max Wind Speed 30 mph    
Max Gust Speed 39 mph    
Visibility 10 miles    
Events      
Averages and records for this station are not official NWS values.
T = Trace of Precipitation, MM = Missing Value Source: NWS Daily Summary

Daily Weather History Graph

Daily Weather History Graph

Search for Another Location

Airport or City:

Trip Planner

Search our weather history database for the weather conditions in past years. The results will help you decide how hot, cold, wet, or windy it might be!

Date:

Astronomy

Jun. 04, 2013 Rise Set
Actual Time 5:45 AM MDT 8:13 PM MDT
Civil Twilight 5:15 AM MDT 8:42 PM MDT
Nautical Twilight 4:38 AM MDT 9:19 PM MDT
Astronomical Twilight 3:58 AM MDT 9:59 PM MDT
Moon 3:09 AM MDT (6/4) 4:50 PM MDT (6/4)
Length of Visible Light 15h 27m
Length of Day
14h 27m
Waning Crescent, 14% of the Moon is Illuminated
Jun 4
Waning Crescent
Jun 8
New
Jun 16
First Quarter
Jun 23
Full
Jun 29
Last Quarter

Hourly Weather History & Observations

Time (MDT) Temp. Dew Point Humidity Pressure Visibility Wind Dir Wind Speed Gust Speed Precip Events Conditions
12:53 AM 63.0 °F 19.9 °F 19% 29.70 in 10.0 mi West 6.9 mph - N/A   Clear
1:53 AM 57.9 °F 18.0 °F 21% 29.72 in 10.0 mi SW 4.6 mph - N/A   Clear
2:53 AM 54.0 °F 16.0 °F 22% 29.74 in 10.0 mi North 6.9 mph - N/A   Clear
3:53 AM 64.9 °F 19.9 °F 18% 29.70 in 10.0 mi WNW 4.6 mph - N/A   Clear
4:53 AM 60.1 °F 19.0 °F 20% 29.73 in 10.0 mi Calm Calm - N/A   Clear
5:53 AM 57.9 °F 19.9 °F 23% 29.73 in 10.0 mi West 4.6 mph - N/A   Clear
6:53 AM 57.9 °F 19.0 °F 22% 29.76 in 10.0 mi Calm Calm - N/A   Clear
7:53 AM 68.0 °F 19.9 °F 16% 29.75 in 10.0 mi Calm Calm - N/A   Clear
8:53 AM 75.0 °F 19.9 °F 13% 29.76 in 10.0 mi NE 5.8 mph - N/A   Clear
9:53 AM 78.1 °F 19.9 °F 11% 29.76 in 10.0 mi ESE 10.4 mph - N/A   Clear
10:53 AM 80.1 °F 18.0 °F 10% 29.78 in 10.0 mi East 9.2 mph - N/A   Clear
11:53 AM 82.0 °F 18.0 °F 9% 29.74 in 10.0 mi SSE 11.5 mph 19.6 mph N/A   Clear
12:53 PM 86.0 °F 15.1 °F 7% 29.72 in 10.0 mi SSW 16.1 mph 23.0 mph N/A   Clear
1:07 PM 84.2 °F 15.8 °F 8% 30.10 in 10.0 mi South 11.5 mph 23.0 mph N/A   Clear
1:53 PM 87.1 °F 14.0 °F 7% 29.71 in 10.0 mi South 18.4 mph 25.3 mph N/A   Clear
2:53 PM 86.0 °F 10.0 °F 6% 29.72 in 10.0 mi SSW 16.1 mph 26.5 mph N/A   Clear
3:53 PM 87.1 °F 6.1 °F 5% 29.65 in 10.0 mi SW 29.9 mph 39.1 mph N/A   Clear
4:53 PM 87.1 °F 3.9 °F 4% 29.66 in 10.0 mi WSW 18.4 mph 28.8 mph N/A   Clear
5:53 PM 86.0 °F 6.1 °F 5% 29.66 in 10.0 mi WSW 20.7 mph 29.9 mph N/A   Clear
6:53 PM 84.0 °F 8.1 °F 6% 29.68 in 10.0 mi WSW 18.4 mph - N/A   Clear
7:53 PM 75.0 °F 7.0 °F 7% 29.69 in 10.0 mi WSW 9.2 mph - N/A   Clear
8:53 PM 70.0 °F 5.0 °F 8% 29.70 in 10.0 mi SW 6.9 mph - N/A   Clear
9:53 PM 68.0 °F 3.0 °F 8% 29.71 in 10.0 mi SW 5.8 mph - N/A   Clear
10:53 PM 69.1 °F 7.0 °F 9% 29.70 in 10.0 mi WSW 3.5 mph - N/A   Clear
11:53 PM 62.1 °F 6.1 °F 11% 29.72 in 10.0 mi SE 4.6 mph - N/A   Clear